Weather History for KJAC - October, 2012

Change the Weather History Date:

Tuesday, October 2, 2012

  Actual Average Record
Temperature  
Mean Temperature 50 °F -  
Max Temperature 71 °F 64 °F 82 °F (1992)
Min Temperature 28 °F 28 °F 17 °F (1959)
Degree Days  
Heating Degree Days 16    
Moisture  
Dew Point 24 °F    
Average Humidity 48    
Maximum Humidity 86    
Minimum Humidity 13    
Precipitation  
Precipitation 0.00 in - - ()
Sea Level Pressure  
Sea Level Pressure 30.09 in    
Wind  
Wind Speed 8 mph (WNW)    
Max Wind Speed 23 mph    
Max Gust Speed 40 mph    
Visibility 10 miles    
Events      
Averages and records for this station are not official NWS values.
T = Trace of Precipitation, MM = Missing Value Source: NWS Daily Summary

Daily Weather History Graph

Daily Weather History Graph

Search for Another Location

Airport or City:

Trip Planner

Search our weather history database for the weather conditions in past years. The results will help you decide how hot, cold, wet, or windy it might be!

Date:

Astronomy

Oct. 02, 2012 Rise Set
Actual Time 7:22 AM MDT 7:01 PM MDT
Civil Twilight 6:53 AM MDT 7:29 PM MDT
Nautical Twilight 6:20 AM MDT 8:02 PM MDT
Astronomical Twilight 5:46 AM MDT 8:36 PM MDT
Moon 8:09 PM MDT (10/2) 9:59 AM MDT (10/2)
Length of Visible Light 12h 36m
Length of Day
11h 38m
Waning Gibbous, 94% of the Moon is Illuminated
Oct 2
Waning Gibbous
Oct 8
Last Quarter
Oct 15
New
Oct 21
First Quarter
Oct 29
Full

Hourly Weather History & Observations

Time (MDT) Temp. Windchill Dew Point Humidity Pressure Visibility Wind Dir Wind Speed Gust Speed Precip Events Conditions
12:55 AM 37.4 °F 32.8 °F 26.6 °F 65% 30.20 in 10.0 mi NNE 5.8 mph - N/A   Clear
1:15 AM 37.4 °F 31.4 °F 26.6 °F 65% 30.20 in 10.0 mi North 8.1 mph - N/A   Clear
1:35 AM 35.6 °F 30.7 °F 26.6 °F 70% 30.20 in 10.0 mi North 5.8 mph - N/A   Clear
1:55 AM 33.8 °F 27.0 °F 24.8 °F 70% 30.20 in 10.0 mi North 8.1 mph - N/A   Clear
2:15 AM 35.6 °F 31.7 °F 26.6 °F 70% 30.20 in 10.0 mi NNE 4.6 mph - N/A   Clear
2:35 AM 33.8 °F 26.4 °F 24.8 °F 70% 30.20 in 10.0 mi North 9.2 mph - N/A   Clear
2:55 AM 33.8 °F 28.6 °F 24.8 °F 70% 30.19 in 10.0 mi NE 5.8 mph - N/A   Clear
3:15 AM 33.8 °F 28.6 °F 24.8 °F 70% 30.19 in 10.0 mi NNE 5.8 mph - N/A   Clear
3:35 AM 33.8 °F 28.6 °F 24.8 °F 70% 30.18 in 10.0 mi NNE 5.8 mph - N/A   Clear
3:55 AM 33.8 °F 30.8 °F 24.8 °F 70% 30.18 in 10.0 mi NNE 3.5 mph - N/A   Clear
4:15 AM 32.0 °F 26.4 °F 24.8 °F 75% 30.18 in 10.0 mi North 5.8 mph - N/A   Clear
4:35 AM 32.0 °F 25.6 °F 24.8 °F 75% 30.17 in 10.0 mi North 6.9 mph - N/A   Clear
4:55 AM 30.2 °F 24.3 °F 24.8 °F 80% 30.17 in 10.0 mi North 5.8 mph - N/A   Clear
5:15 AM 32.0 °F 24.8 °F 26.6 °F 80% 30.16 in 10.0 mi North 8.1 mph - N/A   Clear
5:35 AM 32.0 °F 24.8 °F 26.6 °F 80% 30.16 in 10.0 mi NNE 8.1 mph - N/A   Clear
5:55 AM 30.2 °F 25.4 °F 26.6 °F 86% 30.16 in 10.0 mi NNE 4.6 mph - N/A   Clear
6:15 AM 28.4 °F 23.3 °F 24.8 °F 86% 30.16 in 10.0 mi NE 4.6 mph - N/A   Clear
6:35 AM 28.4 °F 23.3 °F 24.8 °F 86% 30.16 in 10.0 mi NNE 4.6 mph - N/A   Clear
6:51 AM 28.4 °F 23.3 °F 24.8 °F 86% 30.16 in 10.0 mi North 4.6 mph - N/A   Clear
7:51 AM 28.4 °F 22.2 °F 24.8 °F 86% 30.16 in 10.0 mi North 5.8 mph - N/A   Clear
8:51 AM 37.4 °F - 26.6 °F 65% 30.15 in 10.0 mi Calm Calm - N/A   Clear
9:51 AM 46.4 °F - 26.6 °F 46% 30.15 in 10.0 mi Calm Calm - N/A   Clear
10:59 AM 57.2 °F - 26.6 °F 31% 30.13 in 10.0 mi South 3.5 mph - N/A   Clear
11:51 AM 64.4 °F - 28.4 °F 26% 30.11 in 10.0 mi South 6.9 mph - N/A   Clear
12:51 PM 69.8 °F - 26.6 °F 20% 30.07 in 10.0 mi SW 11.5 mph 19.6 mph N/A   Clear
1:51 PM 71.6 °F - 23.0 °F 16% 30.04 in 10.0 mi SSW 17.3 mph 23.0 mph N/A   Clear
2:55 PM 71.6 °F - 21.2 °F 15% 30.01 in 10.0 mi SSW 18.4 mph 28.8 mph N/A   Clear
3:52 PM 71.6 °F - 19.4 °F 14% 29.99 in 10.0 mi SSW 20.7 mph 28.8 mph N/A   Clear
4:53 PM 71.6 °F - 17.6 °F 13% 29.97 in 10.0 mi SSW 23.0 mph 40.3 mph N/A   Clear
5:56 PM 69.8 °F - 17.6 °F 14% 29.99 in 10.0 mi SSW 13.8 mph 28.8 mph N/A   Clear
6:55 PM 64.4 °F - 21.2 °F 19% 29.99 in 10.0 mi SSW 17.3 mph 28.8 mph N/A   Clear
7:55 PM 62.6 °F - 21.2 °F 20% 29.98 in 10.0 mi South 20.7 mph 29.9 mph N/A   Clear
8:51 PM 60.8 °F - 21.2 °F 22% 29.98 in 10.0 mi South 12.7 mph 28.8 mph N/A   Clear
8:55 PM 60.8 °F - 21.2 °F 22% 29.98 in 10.0 mi SSW 6.9 mph 19.6 mph N/A   Clear
9:15 PM 60.8 °F - 21.2 °F 22% 29.99 in 10.0 mi SW 10.4 mph - N/A   Clear
9:35 PM 60.8 °F - 21.2 °F 22% 29.97 in 10.0 mi SW 15.0 mph 26.5 mph N/A   Clear
9:55 PM 60.8 °F - 21.2 °F 22% 29.97 in 10.0 mi SW 18.4 mph 29.9 mph N/A   Clear
10:15 PM 60.8 °F - 19.4 °F 20% 29.97 in 10.0 mi SW 12.7 mph 23.0 mph N/A   Clear
10:35 PM 60.8 °F - 19.4 °F 20% 29.96 in 10.0 mi SW 16.1 mph 27.6 mph N/A   Clear
10:55 PM 60.8 °F - 21.2 °F 22% 29.96 in 10.0 mi SW 13.8 mph 26.5 mph N/A   Clear
11:15 PM 59.0 °F - 21.2 °F 23% 29.97 in 10.0 mi South 8.1 mph 21.9 mph N/A   Clear
11:35 PM 57.2 °F - 21.2 °F 25% 29.97 in 10.0 mi South 11.5 mph - N/A   Clear
11:55 PM 57.2 °F - 21.2 °F 25% 29.97 in 10.0 mi South 13.8 mph - N/A   Clear